Regional Weather Roundup
Issued by NWS Albany, NY

Home | Current Version | Previous Version | Text Only | Print | Product List | Glossary On
Versions: 1 2 3 4 5 6 7 8 9 10 11 12 13 14 15 16 17 18 19 20 21 22 23 24 25 26 27 28 29 30 31 32 33 34 35 36 37 38 39 40 41 42 43 44 45 46 47 48 49 50
000
ASUS41 KALY 281510
RWRALY

NEW YORK STATE HOURLY WEATHER ROUNDUP
NATIONAL WEATHER SERVICE ALBANY NY
1100 AM EDT THU MAY 28 2015

NOTE: "FAIR" INDICATES FEW OR NO CLOUDS BELOW 12,000 FEET WITH NO
SIGNIFICANT WEATHER AND/OR NO OBSTRUCTIONS TO VISIBILITY.

NYZ032-033-038>043-046>054-057>066-NYZ062>081-281600-
EAST


CITY           SKY/WX    TMP DP  RH WIND       PRES   REMARKS
ALBANY         PTSUNNY   76  66  71 S9        30.10F
GLENS FALLS    PTSUNNY   75  66  73 S13       30.08F
POUGHKEEPSIE   MOSUNNY   80  68  66 SW7       30.12F
NEWBURGH         N/A     77  72  83 W9        30.15F
MONTGOMERY       N/A    N/A N/A N/A MISG      30.13F
WHITE PLAINS   PTSUNNY   73  67  81 VRB5      30.17F HAZE
ISLIP          CLOUDY    66  62  87 SW10      30.18R
NEW YORK CITY  PTSUNNY   75  64  69 S6        30.16F
CENTRAL PARK   PTSUNNY   78  68  71 VRB5      30.19F
$$

NYZ005>009-017-018-044>046-055-056-281600-
CENTRAL


CITY           SKY/WX    TMP DP  RH WIND       PRES   REMARKS
FULTON         CLOUDY    61  52  72 W24G35    30.18R
SYRACUSE       CLOUDY    64  55  72 W13       30.17R
ROME           CLOUDY    66  57  72 W15G22    30.16R
ELMIRA         MOSUNNY   74  56  53 NW14G24   30.19R
BINGHAMTON     MOSUNNY   71  56  58 W20       30.18S
MONTICELLO     MOSUNNY   72  64  78 W7G17     30.19S
$$

NYZ026>034-041>043-281600-
NORTH


CITY           SKY/WX    TMP DP  RH WIND       PRES   REMARKS
WATERTOWN      CLOUDY    56  52  86 SW10      30.13R
FORT DRUM      NOT AVBL
MASSENA        CLOUDY    65  60  84 SW9G20    30.06R
SARANAC LAKE   CLOUDY    63  61  93 SW7       30.08R
PLATTSBURGH    CLOUDY    70  64  81 SE3       30.03S
$$

NYZ001>004-010>016-019>021-281600-
WEST


CITY           SKY/WX    TMP DP  RH WIND       PRES   REMARKS
NIAGARA FALLS  MOSUNNY   68  53  58 NW9       30.23R
BUFFALO        MOSUNNY   66  54  65 SW9       30.23S
DUNKIRK        SUNNY     64  53  67 NW6       30.26R
JAMESTOWN      MOSUNNY   64  52  63 N8        30.28S
WELLSVILLE     MOSUNNY   66  52  60 NW8       30.27R
ROCHESTER      PTSUNNY   66  54  65 NW14G23   30.21R
PENN YAN       CLOUDY    65  53  65 W10       30.21R
$$

             KEY
       WCI = WIND CHILL INDEX
       VSB = VISIBILITY
       HX  = HEAT INDEX
$$


USA.gov is the U.S. government's official web portal to all federal, state and local government web resources and services.